Lid_Strength_Index
2 2 2 3 3 2 3 6 10 2 1 9 11 13 11 9 8 7 8 8 9 10 10 11 11 11 10 8 7 10 9 11 15 12 9 8 10 11 12 16 16 17 18 16
1 2 2 3 3 3 4 8 6 2 2 12 13 11 11 9 8 8 9 9 8 8 11 12 10 10 7 7 8 9 9 12 16 14 11 10 12 11 11 12 15 16 19 16
1 1 2 3 3 3 4 7 10 7 5 6 10 12 12 10 7 8 8 9 8 9 10 9 11 10 8 7 7 7 8 12 13 16 13 12 13 12 11 12 17 16 16 14
2 2 2 2 2 3 5 7 9 7 11 10 9 10 11 11 11 8 7 9 9 10 12 11 12 10 10 8 8 8 9 13 13 12 12 11 11 11 11 13 13 15 13 13
2 2 2 2 2 2 6 8 8 6 9 7 9 9 12 11 9 9 10 10 9 9 11 10 11 10 10 10 9 10 10 14 13 14 12 12 13 11 12 12 12 12 13 13
2 3 2 2 2 2 7 6 5 6 8 9 10 11 11 11 8 8 8 8 9 10 9 8 8 7 7 8 9 11 12 14 15 16 14 14 16 14 12 11 11 12 14 12
3 3 3 2 2 3 4 5 5 8 11 10 10 9 9 10 9 9 7 7 9 7 6 7 7 9 8 8 9 9 13 14 16 17 17 20 12 10 10 11 11 11 11 11
3 3 3 3 3 2 5 3 4 7 11 9 9 9 9 8 8 8 7 7 7 5 8 11 12 15 13 12 10 10 10 14 17 18 18 15 12 11 11 12 12 10 11 10
4 3 3 3 3 3 4 4 3 5 9 10 7 8 8 10 10 9 8 5 5 6 11 15 15 17 14 15 12 11 12 14 15 18 19 20 13 11 9 9 14 9 9 9
4 3 3 2 3 3 3 3 1 4 8 7 6 9 9 7 8 10 9 8 9 7 15 16 17 17 12 15 16 17 17 17 18 21 20 17 12 9 9 14 13 9 8 8
4 3 3 3 2 2 3 3 1 4 7 6 5 5 7 6 7 10 8 9 9 13 13 15 16 17 14 15 13 14 15 17 19 19 20 18 9 9 13 11 9 8 8 8
3 3 2 2 2 2 2 3 1 2 6 7 5 5 4 5 5 6 7 8 9 8 11 13 14 16 16 14 16 11 14 13 14 14 14 10 9 9 8 8 8 8 8 7
3 3 3 2 2 1 1 2 2 3 6 8 7 6 4 3 3 2 8 7 6 7 7 10 12 15 15 16 15 14 11 9 12 12 10 9 8 7 7 7 7 7 7 7
3 3 2 2 2 0 0 2 2 3 4 9 7 2 4 3 3 3 4 5 4 6 8 11 13 14 11 15 13 14 11 9 10 11 10 8 8 9 9 10 9 10 10 10
3 3 2 2 0 -0 -0 1 2 2 5 9 8 6 4 3 4 3 4 4 6 9 11 14 13 12 11 16 14 16 10 10 12 13 8 9 9 9 9 9 10 10 10 11
2 2 2 0 -0 0 3 6 3 2 2 7 13 6 6 5 5 4 5 5 7 8 10 13 11 8 11 14 16 10 9 8 8 9 8 9 10 10 9 10 10 10 11 12
1 1 0 -0 0 3 7 7 4 2 4 8 12 14 7 4 6 7 6 6 7 7 9 13 11 10 11 17 15 9 8 9 9 9 10 11 11 11 10 10 11 11 12 11
1 0 -0 0 1 2 3 1 2 2 5 5 11 13 10 6 12 10 7 10 8 8 10 12 14 11 14 14 10 9 9 9 9 10 9 10 11 11 11 11 12 13 13 13
0 -0 0 1 3 5 4 2 2 1 4 9 12 13 14 8 11 11 11 10 12 9 12 12 11 14 14 12 11 10 9 10 11 11 11 11 12 12 12 13 13 14 14 14
1 1 4 7 4 2 3 4 6 6 6 8 13 10 12 10 13 13 12 12 13 14 13 11 14 14 12 12 10 10 11 11 11 13 14 13 14 14 13 13 13 13 15 15
3 6 7 3 3 5 8 10 11 10 13 11 11 11 11 9 12 13 13 14 15 15 14 13 15 15 13 12 11 10 10 10 10 10 11 12 12 13 14 14 14 15 15 15
4 4 3 4 6 9 13 13 12 12 13 13 12 12 10 11 9 12 13 14 14 16 12 15 15 14 12 12 11 10 10 11 11 11 11 12 12 12 13 14 15 15 15 16
4 8 11 10 13 14 14 15 14 14 14 13 13 13 13 12 11 14 15 16 17 14 14 15 15 11 10 11 11 12 11 11 12 12 12 13 14 14 15 15 15 15 15 15
11 12 15 14 16 15 15 15 14 14 13 13 12 13 13 14 14 14 16 14 13 15 16 18 14 12 12 12 12 12 13 14 14 14 14 14 15 16 16 15 15 16 16 16
13 13 16 15 14 13 13 13 13 13 12 13 12 12 11 13 13 14 14 15 16 16 18 15 14 13 13 13 13 14 14 15 14 14 15 15 15 16 16 16 15 16 17 18
13 13 14 14 14 14 14 13 13 12 12 12 12 13 14 15 14 15 16 16 18 17 16 14 13 13 13 14 14 14 14 14 14 14 14 15 15 15 16 16 17 18 18 19
15 14 13 13 14 14 14 14 13 12 12 14 13 15 16 14 17 18 16 18 17 15 14 14 13 13 14 13 13 14 14 14 14 14 15 15 16 16 17 17 16 17 18 19